Torna al catalogo

THOR ABLESTAR R/B

AttivoPO
NORAD 1428·ROCKET BODY·🇺🇸 United States

Lanciato Jun 24, 1965 da Vandenberg Space Force Base

Loading…

Prossimi Passaggi (prossime 24 ore)

TLE

AggiornatoSource: Space-Track

Epoca: Sep 14, 2026, 12:53 UTC

1 01428U 65048B   26257.53684492  .00000029  00000-0  29905-4 0  9991
2 01428  89.8693 283.8755 0054949 281.0365 234.0449 13.52692253 20707

Traccia THOR ABLESTAR R/B in tempo reale con AllMySat

Download on the App Store